SL-16 R/B, 23343

Orbit data source: Space-Track

SL-16 R/B, 23343 is space debris in SSO originally from a launch on Fri, 04 Nov 1994 UTC launched from the Tyuratam Missile And Space Complex (TTMTR). Debris objects in space refer to the collection of defunct objects orbiting the Earth. Examples of debris include non-operational satellites, rocket bodies, and fragments generated from explosions, collisions, or faulty payload assembly.

Loading next visibility...
Identifier
23343, 1994-074B
Orbit
SSO
Country
Flag of CISCIS
Related business
Manufacturer
Yuzhnoe
Mission
Spacecraft
Bus & Motor
11S772, Unknown motor
Mass
9,000 kg wet, 9,000 kg dry
Launch date (UTC)
1994-11-04 (32 years ago)
Launch vehicle
Unknown
Launch site
Tyuratam Missile And Space Complex (TTMTR)
Object type
Payload
Rocket body
Debris
Shape & HBR
Cyl, 5.6 m
Radar Cross Section
37.829 m², Large (>1 m²)

Expand to show TLE details & history
Last TLE update: 18 hours ago

TLE from 18 hours ago
0 SL-16 R/B
1 23343U 94074B   26256.83137575  .00000281  00000-0  44076-4 0  9995
2 23343  97.6961 279.8461 0005924 340.9511 191.4626 14.79564905715063
Epoch: 2026-09-13T19:57Z
TLE epoch observation values (Epoch: 2026-09-13T19:57:10.864Z)
Latitude
7.45835°
Longitude
168.73863°
Altitude
637.135 km
Speed
7.538 km/s
True Right ascension
06h 43m 25s
True Declination
7° 24' 48"
Sunlit
Object was in daylight at epoch
Visualization orbit readout
Latitude
Unknown
Longitude
Unknown
Altitude
Unknown
Speed
Unknown
Apparent Right ascension
Unknown
Apparent Declination
Unknown
Sunlit
N/A
Visualization observer readout
Local Sidereal Time
06:44:20
Azimuth
Unknown
Elevation
Unknown
Doppler factor
Unknown
Orbital elements
Apogee altitude
631.881 km
Perigee altitude
623.58 km
Semi-major axis
7,005.867 km
Eccentricity
0.00059
Inclination
97.6961°
RAAN
279.8461°
Arg. of periapsis
340.9511°
True anomaly
191.44912°
Mean anomaly
191.4626°
Eccentric anomaly
191.45586°
Mean motion
3.70127 °/min
Orbital period
97.26 mins
BSTAR
0.000044076
Loading maneuver chart data...
Computing Atmospheric mass density...

Documentation

Showing up to 5 results
|